Home   Weather   Leutkirch im Allgäu   Past weeks

Flag for Germany Past Weather in Leutkirch im Allgäu, Baden-Württemberg, Germany — Yesterday and Last 2 Weeks

Now
64 °F

Passing clouds.


Feels Like: 64 °F
Forecast: 48 / 69 °F
Wind: 5 mph from Southwest

Location: Friedrichshafen Airport

Current Time: Sep 28, 2016 at 1:59:50 PM

Latest Report: Sep 28, 2016 at 12:50 PM


Visibility: N/A

Pressure: 30.45 "Hg (28.19 "Hg at 656m altitude)

Humidity: 73%

Dew Point: 55 °F

Location of Leutkirch im AllgäuLocation

Past Weather in Leutkirch im Allgäu — Graph

°F

Leutkirch im Allgäu Temperature Yesterday

Maximum temperature yesterday: 68 °F (at 3:20 PM)
Minimum temperature yesterday: 52 °F (at 11:20 PM)
Average temperature yesterday: 60 °F

High & Low Weather Summary for the Past Weeks

 TemperatureHumidityPressure
High82 °F (Sep 14, 4:50 PM)100% (Sep 14, 7:20 AM)30.48 "Hg (Sep 14, 7:20 AM)
Low45 °F (Sep 22, 2:20 AM)53% (Sep 24, 4:20 PM)29.80 "Hg (Sep 15, 5:50 AM)
Average59 °F84%30.10 "Hg
* Reported Sep 13 12:20 PM — Sep 28 12:20 PM, Leutkirch im Allgäu, Weather by CustomWeather, © 2016

Note: Actual official high and low records may vary slightly from our data, if they occured in-between our weather recording intervals... More about our weather records

Advertising

Leutkirch im Allgäu Weather History for the Previous 24 Hours

Scroll right to see more
 ConditionsComfort  
Time TempWeatherWind HumidityBarometerVisibility
12:20 PM
Wed, Sep 28
63 °FPassing clouds.2 mph77%30.45 "HgN/A
11:50 AM61 °FScattered clouds.2 mph88%30.45 "HgN/A
11:20 AM59 °FBroken clouds.No wind88%30.48 "HgN/A
10:50 AM57 °FLow clouds.1 mph94%30.48 "HgN/A
10:20 AM57 °FLow clouds.2 mph94%30.48 "Hg4 mi
9:50 AM57 °FLow clouds.3 mph88%30.45 "HgN/A
9:20 AM55 °FLow clouds.1 mph100%30.45 "Hg5 mi
8:50 AM54 °FFog.1 mph100%30.45 "Hg3 mi
8:20 AM54 °FFog.No wind100%30.45 "Hg2 mi
7:50 AM52 °FFog.1 mph100%30.42 "Hg2 mi
7:20 AM50 °FFog.3 mph100%30.42 "Hg1 mi
6:50 AM50 °FFog.5 mph100%30.42 "Hg2 mi
6:20 AM48 °FPassing clouds.3 mph100%30.42 "Hg1 mi
5:50 AM48 °FFog.No wind100%30.42 "Hg2 mi
5:20 AM48 °FCool.2 mph100%30.42 "Hg1 mi
4:50 AM48 °FCool.1 mph100%30.39 "Hg1 mi
4:20 AM48 °FFog.1 mph100%30.39 "Hg2 mi
3:50 AM50 °FCool.2 mph100%30.39 "Hg1 mi
3:20 AM50 °FFog.5 mph100%30.39 "Hg2 mi
2:50 AM52 °FFog.2 mph94%30.39 "Hg3 mi
1:50 AM52 °FCool.3 mph100%30.39 "Hg4 mi
1:20 AM50 °FCool.2 mph100%30.39 "Hg2 mi
12:50 AM50 °FCool.3 mph100%30.39 "Hg0 mi
12:20 AM52 °FCool.No wind100%30.39 "Hg1 mi
11:50 PM
Tue, Sep 27
52 °FCool.No wind100%30.39 "Hg0 mi
11:20 PM52 °FCool.2 mph100%30.39 "Hg2 mi
10:50 PM54 °FCool.1 mph94%30.39 "Hg5 mi
10:20 PM54 °FCool.2 mph100%30.39 "Hg2 mi
9:50 PM54 °FClear.2 mph100%30.39 "Hg4 mi
8:50 PM55 °FCool.No wind94%30.36 "HgN/A
8:20 PM57 °FClear.3 mph94%30.36 "Hg10 mi
7:50 PM57 °FCool.No wind94%30.36 "HgN/A
7:20 PM59 °FClear.1 mph88%30.33 "Hg10 mi
6:50 PM63 °FSunny.2 mph77%30.33 "Hg10 mi
6:20 PM66 °FSunny.2 mph68%30.33 "Hg10 mi
5:50 PM66 °FSunny.5 mph68%30.33 "Hg10 mi
5:20 PM68 °FPassing clouds.6 mph64%30.30 "HgN/A
4:50 PM68 °FPassing clouds.5 mph64%30.30 "HgN/A
4:20 PM68 °FPassing clouds.5 mph64%30.30 "HgN/A
3:50 PM68 °FPassing clouds.5 mph69%30.30 "HgN/A
3:20 PM68 °FPassing clouds.3 mph64%30.30 "HgN/A
2:50 PM66 °FPassing clouds.3 mph64%30.30 "HgN/A
2:20 PM66 °FPassing clouds.6 mph68%30.30 "HgN/A
1:50 PM66 °FScattered clouds.1 mph64%30.30 "HgN/A
1:20 PM66 °FScattered clouds.2 mph64%30.33 "HgN/A
Weather by CustomWeather, © 2016

See weather overviewHow to use our weather pages